Regional Weather Roundup
Issued by NWS

Home | Current Version | Previous Version | Text Only | Print | Product List | Glossary On
Versions: 1 2 3 4 5 6 7 8 9 10 11 12 13 14 15 16 17 18 19 20 21 22 23 24 25 26 27
000
ASUS42 KKEY 201610
RWRKEY

FLORIDA REGIONAL WEATHER ROUNDUP FOR THE FLORIDA KEYS
NATIONAL WEATHER SERVICE KEY WEST FLORIDA
1200 PM EDT WED SEP 20 2017

...SOUTH FLORIDA AND THE KEYS...

CITY           SKY/WX    TMP DP  RH WIND       PRES   REMARKS
FORT MYERS     MOSUNNY   89  74  60 VRB3      29.98F HX  98
SW REGIONAL AP SUNNY     89  72  56 NE5       29.99F HX  96
NAPLES         MOSUNNY   87  75  67 SW9       29.98F HX  96
MIAMI          MOSUNNY   90  73  57 S6        29.98F HX  98
WEST KENDALL   MOSUNNY   90  71  53 CALM      29.99F HX  96
HOMESTEAD      SUNNY     86  77  74 E8        29.98F HX  97
MARATHON       SUNNY     89  70  53 SE6       29.99F HX  94
BOCA CHICA NAS SUNNY     94  77  57 MISG      30.00S HX 108
KEY WEST INTL  SUNNY     86  73  65 S6        30.00F HX  93

...INTERNATIONAL WEATHER...

CITY           SKY/WX    TMP DP  RH WIND       PRES   REMARKS
NASSAU BAHAMAS MOSUNNY   90  77  66 NW6       30.00S HX 102
CANCUN MEXICO  MOSUNNY   84  75  74 E6        29.97S HX  92
COZUMEL MEXICO MOSUNNY   88  77  70 SE8       29.94S HX 100

ADJACENT COASTAL WATERS...

STATION/POSITION TIME  SKY/WX   TEMP    WIND        PRES    WAVE
                                AIR SEA DIR/SP/G            HT/PER
                 (UTC)          (F)     (DEG/KT/KT) (MB)    (FT/S)
PULASKI SHOAL LI 1600            84     220/  2/  4 1016.0F
SAND KEY         1550            83                 1016.5F
LONG KEY         NOT AVBL
MOLASSES REEF    NOT AVBL
FOWEY ROCKS      1600            83 85  130/  6/  7 1016.4F
Buoy 42097       1430               85                N/A     2/ 5

$$




USA.gov is the U.S. government's official web portal to all federal, state and local government web resources and services.